Regional Weather Roundup
Issued by NWS Goodland, KS

Home | Current Version | Previous Version | Text Only | Print | Product List | Glossary On
Versions: 1 2 3 4 5 6 7 8 9 10 11 12 13 14 15 16 17 18 19 20 21 22 23 24 25 26 27 28 29 30 31 32 33 34 35 36 37 38 39 40 41 42 43 44 45 46 47 48 49 50
000
ASUS43 KGLD 261908
RWRGLD

GOODLAND FORECAST AREA HOURLY WEATHER ROUNDUP
NATIONAL WEATHER SERVICE GOODLAND KS
100 PM MDT SUN MAR 26 2017

...OFFICIAL OBSERVATIONS...

CITY           SKY/WX    TMP DP  RH WIND       PRES   REMARKS
GOODLAND KS    CLOUDY    45  41  86 NE9       29.87R
HILL CITY KS   LGT RAIN  46  42  86 E10       29.89S
IMPERIAL NEB   PTSUNNY   50  41  71 N6        29.89S
MCCOOK NEB     CLOUDY    46  42  86 E7        29.89S
AKRON CO       CLOUDY    49  35  58 N12       29.89S
BURLINGTON CO  CLOUDY    46  41  82 NE15      29.86S
LIMON CO       CLOUDY    44  36  73 N17       29.88S
$$

...UNOFFICIAL OBSERVATIONS...

CITY           SKY/WX    TMP DP  RH WIND       PRES   REMARKS
LENORA KS        N/A     44  32  63 CALM        N/A
NORTON KS      CLOUDY    48  39  71 NE7       29.88
SHARON SPRINGS   N/A     41  40  96 NE14        N/A
TRENTON NEB      N/A     43  32  65 CALM        N/A
YUMA CO        CLOUDY    50  37  62 NE7       29.89S
$$




USA.gov is the U.S. government's official web portal to all federal, state and local government web resources and services.